Regional Weather Roundup
Issued by NWS

Home | Current Version | Previous Version | Text Only | Print | Product List | Glossary On
Versions: 1 2 3 4 5 6 7 8 9 10 11 12 13 14 15 16 17 18 19 20 21 22 23 24 25 26 27 28 29 30 31 32 33 34 35 36 37 38 39 40 41 42 43 44 45 46 47 48 49 50
000
ASUS43 KDTX 262010
RWRMI
MICHIGAN HOURLY REGIONAL WEATHER ROUNDUP
NATIONAL WEATHER SERVICE DETROIT/PONTIAC MI
400 PM EDT SUN APR 26 2015

NOTE: "FAIR" INDICATES FEW OR NO CLOUDS BELOW 12,000 FEET WITH NO
SIGNIFICANT WEATHER AND/OR OBSTRUCTION TO VISIBILITY.

MIZ047>049-052>055-059>063-066>070-074>076-081>083-262100-
SOUTHEAST LOWER MICHIGAN

CITY           SKY/WX    TMP DP  RH WIND       PRES   REMARKS
ADRIAN         MOSUNNY   58  29  33 N13G20    29.90F
ALMA           PTSUNNY   57  26  30 N10G16    29.92F
ANN ARBOR      CLOUDY    57  29  34 N13       29.89F
BAD AXE        SUNNY     51  31  45 N10G16    29.93F
CARO           SUNNY     54  32  42 N5G16     29.92F
DETROIT CITY   CLOUDY    55  30  38 N15       29.90S
DETROIT        CLOUDY    58  28  32 N13G18    29.90S
FLINT          SUNNY     57  28  33 N14G23    29.93F
GROSSE ILE     CLOUDY    55  28  35 NE6       29.88S
HILLSDALE      MOSUNNY   56  28  34 N14G20    29.90S
HOWELL         MOSUNNY   56  27  33 N8G21     29.91S

CITY           SKY/WX    TMP DP  RH WIND       PRES   REMARKS
JACKSON        CLOUDY    55  27  34 N12       29.91F
LAMBERTVILLE   PTSUNNY   59  28  31 N7        29.89F
LANSING        PTSUNNY   56  28  34 NW13G20   29.93F
LAPEER         MOCLDY    54  30  39 NE12      29.91S
MASON          PTSUNNY   54  28  36 N12       29.92S
MONROE         CLOUDY    57  28  33 N5        29.87F
MT. CLEMENS    PTSUNNY   53  32  45 N15       29.87F
PONTIAC        PTSUNNY   53  30  41 N13       29.89F
PORT HOPE        N/A     43  35  73 N7        29.94S
PORT HURON     SUNNY     50  34  53 N13       29.92S
TRI CITIES     PTSUNNY   57  32  38 NE10      29.93F
MIDLAND        CLOUDY    55  31  40 E7        29.92S
TROY           CLOUDY    55  29  36 N14       29.91F
SAGINAW HB     SUNNY     55  28  35 N14       29.93S
$$
MIZ043>046-050>051-056>058-064>065-071>073-077>080-262100-
SOUTHWEST LOWER MICHIGAN

CITY           SKY/WX    TMP DP  RH WIND       PRES   REMARKS
BATTLE CREEK   PTSUNNY   57  29  34 N9G22     29.93F
BENTON HARBOR  SUNNY     46  34  62 N8        29.98F
BIG RAPIDS     PTSUNNY   57  23  26 N10G20    29.93F
COLDWATER      MOSUNNY   54  29  38 N12G17    29.91F
FREMONT        FAIR      58  24  27 N16       29.95S
HOLLAND        SUNNY     55  31  39 NW15G23   29.97F
GRAND RAPIDS   PTSUNNY   58  27  30 N6        29.93F
IONIA          MOCLDY    57  29  33 NW10      29.92S
KALAMAZOO      PTSUNNY   57  28  33 NE7       29.94S
LUDINGTON      SUNNY     51  25  35 N20G28    30.02F
MARSHALL       PTSUNNY   54  29  38 N8        29.92F
MOUNT PLEASANT CLOUDY    57  27  32 N7        29.92F
MUSKEGON       MOSUNNY   57  27  31 NW23G29   29.96S
SOUTH HAVEN    SUNNY     49  31  50 N16G22    29.98S
$$
MIZ016>042-262100-
NORTHERN LOWER MICHIGAN

CITY           SKY/WX    TMP DP  RH WIND       PRES   REMARKS
BEAVER ISLAND  MOSUNNY   50  32  50 NW10G17   30.03S
BELLAIRE       MOSUNNY   52  29  41 NW12      30.00S
CADILLAC       MOSUNNY   52  25  35 N15G25    29.96S
CHARLEVOIX     MOSUNNY   47  32  55 NW9       30.05S
FRANKFORT      MOSUNNY   53  24  32 N10       30.02F
GAYLORD        CLOUDY    50  28  42 NW8       29.96S
GRAYLING       CLOUDY    53  28  37 N14       29.95F
HARBOR SPRINGS PTSUNNY   52  31  45 N10G17    29.99S
HOUGHTON LAKE  CLOUDY    54  26  34 N15       29.94S
MANISTEE       SUNNY     48  28  46 NW14G23   30.03S
OSCODA         CLOUDY    48  34  57 NE14      29.93S
PELLSTON       CLOUDY    51  32  48 NW17      29.99F
ROGERS CITY    MOSUNNY   50  34  53 NW8       29.98F
TRAVERSE CITY  MOSUNNY   52  29  41 N13       30.00F
$$
MIZ007>008-015-262100-
EASTERN UPPER MICHIGAN

CITY           SKY/WX    TMP DP  RH WIND       PRES   REMARKS
KINROSS        PTSUNNY   45  30  57 NW21G28   29.99F
MACKINAC ISLAN MOSUNNY   49  33  53 N13G20    30.00S
NEWBERRY       MOSUNNY   45  33  63 NW21      30.04S
S. S. MARIE    PTSUNNY   45  31  58 NW17G26   30.00F
MUNISING         N/A     38  31  76 NW17      30.11S WCI  28
$$
MIZ004>006-011>014-085-262100-
CENTRAL UPPER MICHIGAN

CITY           SKY/WX    TMP DP  RH WIND       PRES   REMARKS
MANISTIQUE     SUNNY     51  33  49 N17G23    30.04F
ESCANABA       MOSUNNY   54  28  37 NE14G20   30.05F
MENOMINEE      SUNNY     48  28  46 E14G23    30.04F
$$
MIZ001>003-009>011-084-262100-
WESTERN UPPER MICHIGAN

CITY           SKY/WX    TMP DP  RH WIND       PRES   REMARKS
IRON MOUNTAIN  SUNNY     58  27  30 N18G25    30.04R
HOUGHTON       SUNNY     50  30  46 N9        30.13R
COPPER HARBOR    N/A     42  30  62 N12       30.14F
IRONWOOD       SUNNY     45  28  53 N14       30.14S
$$

ABBREVIATIONS USED IN REMARKS
   TC - TEMPERATURE IN CELSIUS
  WCI - WIND CHILL INDEX
   HX - HEAT INDEX
  VSB - VISIBILITY




USA.gov is the U.S. government's official web portal to all federal, state and local government web resources and services.